This is the latest recevied weather packets stored in our database for station/object MB7UKY-10. If no packets are shown the sender has not sent any weather packets the latest 10 day(s).
| Time | Temp. | Humidity | Pressure | Rain* | Wind** | Luminosity | Snow |
|---|---|---|---|---|---|---|---|
| 1777912921 | 20° C | 50% | 1010.6 hPa | - | - | - | - |
| 1777912020 | 20° C | 50% | 1010.5 hPa | - | - | - | - |
| 1777911119 | 20.56° C | 50% | 1010.4 hPa | - | - | - | - |
| 1777910219 | 20.56° C | 50% | 1010.5 hPa | - | - | - | - |
| 1777909317 | 20.56° C | 50% | 1010.5 hPa | - | - | - | - |
| 1777908416 | 20.56° C | 50% | 1010.4 hPa | - | - | - | - |
| 1777907516 | 20.56° C | 51% | 1010.4 hPa | - | - | - | - |
| 1777906615 | 20° C | 51% | 1010.4 hPa | - | - | - | - |
| 1777905714 | 20° C | 51% | 1010.6 hPa | - | - | - | - |
| 1777904813 | 20° C | 51% | 1010.5 hPa | - | - | - | - |
| 1777903912 | 20° C | 51% | 1010.6 hPa | - | - | - | - |
| 1777903012 | 20° C | 51% | 1010.6 hPa | - | - | - | - |
| 1777902111 | 19.44° C | 52% | 1010.8 hPa | - | - | - | - |
| 1777901210 | 19.44° C | 52% | 1010.8 hPa | - | - | - | - |
| 1777900310 | 19.44° C | 52% | 1010.7 hPa | - | - | - | - |
| 1777899409 | 19.44° C | 52% | 1010.6 hPa | - | - | - | - |
| 1777898508 | 19.44° C | 52% | 1010.9 hPa | - | - | - | - |
| 1777897607 | 19.44° C | 52% | 1010.8 hPa | - | - | - | - |
| 1777896707 | 18.89° C | 52% | 1010.9 hPa | - | - | - | - |
| 1777895806 | 18.89° C | 52% | 1010.9 hPa | - | - | - | - |
| 1777894905 | 18.33° C | 53% | 1011 hPa | - | - | - | - |
| 1777894004 | 17.78° C | 53% | 1010.9 hPa | - | - | - | - |
| 1777893104 | 17.78° C | 54% | 1010.9 hPa | - | - | - | - |
| 1777892203 | 17.78° C | 54% | 1010.8 hPa | - | - | - | - |
| 1777891302 | 17.78° C | 54% | 1010.5 hPa | - | - | - | - |
* Rain since midnight (hover to see other rain measurements)
** Current wind speed in m/s (hover to see current wind gust speed)